| time (UTC) | temp F | wind direction | speed MPH | gust MPH | rain 1hr in | rain 24hr in | rain mn in | humidity % | barometer mb |
| 20260831144545 | 84 | 0 | 2.0 | 6.0 | 0.00 | 0.00 | 0.00 | 64 | 1015.4 |
| 20260831143041 | 83 | 157 | 2.0 | 6.0 | 0.00 | 0.00 | 0.00 | 64 | 1015.6 |
| 20260831141556 | 83 | 146 | 3.0 | 9.0 | 0.00 | 0.00 | 0.00 | 63 | 1015.6 |
| 20260831140050 | 82 | 206 | 2.0 | 8.0 | 0.00 | 0.00 | 0.00 | 65 | 1015.7 |
| 20260831134541 | 82 | 213 | 3.0 | 7.0 | 0.00 | 0.00 | 0.00 | 65 | 1015.6 |
| 20260831133041 | 80 | 149 | 3.0 | 9.0 | 0.00 | 0.00 | 0.00 | 67 | 1015.6 |
| 20260831131552 | 78 | 279 | 2.0 | 9.0 | 0.00 | 0.00 | 0.00 | 71 | 1015.6 |
| 20260831130052 | 77 | 201 | 1.0 | 6.0 | 0.00 | 0.00 | 0.00 | 71 | 1015.5 |
| 20260831124540 | 75 | 176 | 1.0 | 5.0 | 0.00 | 0.00 | 0.00 | 74 | 1015.4 |
| 20260831123043 | 74 | 200 | 0.0 | 3.0 | 0.00 | 0.00 | 0.00 | 76 | 1015.0 |
| 20260831121557 | 73 | 0 | 0.0 | 2.0 | 0.00 | 0.00 | 0.00 | 78 | 1015.0 |
| 20260831120045 | 73 | 0 | 0.0 | 1.0 | 0.00 | 0.00 | 0.00 | 78 | 1015.0 |
| 20260831114550 | 73 | 0 | 0.0 | 2.0 | 0.00 | 0.00 | 0.00 | 78 | 1014.7 |
| 20260831113042 | 73 | 0 | 0.0 | 1.0 | 0.00 | 0.00 | 0.00 | 78 | 1014.6 |
| 20260831111553 | 73 | 192 | 0.0 | 1.0 | 0.00 | 0.00 | 0.00 | 77 | 1014.6 |
| 20260831110057 | 74 | 0 | 0.0 | 2.0 | 0.00 | 0.00 | 0.00 | 76 | 1014.3 |
| 20260831104544 | 74 | 0 | 0.0 | 2.0 | 0.00 | 0.00 | 0.00 | 75 | 1014.2 |
| 20260831103055 | 75 | 0 | 0.0 | 3.0 | 0.00 | 0.00 | 0.00 | 74 | 1013.9 |
| 20260831101554 | 75 | 0 | 0.0 | 5.0 | 0.00 | 0.00 | 0.00 | 74 | 1013.8 |
| 20260831100041 | 75 | 0 | 0.0 | 2.0 | 0.00 | 0.00 | 0.00 | 73 | 1013.8 |
| 20260831094553 | 76 | 131 | 0.0 | 3.0 | 0.00 | 0.00 | 0.00 | 72 | 1013.7 |
| 20260831093057 | 76 | 0 | 0.0 | 3.0 | 0.00 | 0.00 | 0.00 | 72 | 1013.7 |
| 20260831091551 | 76 | 89 | 0.0 | 2.0 | 0.00 | 0.00 | 0.00 | 72 | 1013.7 |
| 20260831090043 | 76 | 0 | 0.0 | 2.0 | 0.00 | 0.00 | 0.00 | 71 | 1013.6 |
| 20260831084545 | 77 | 79 | 0.0 | 2.0 | 0.00 | 0.00 | 0.00 | 70 | 1013.7 |
| 20260831083055 | 77 | 0 | 0.0 | 2.0 | 0.00 | 0.00 | 0.00 | 69 | 1013.6 |
| 20260831081546 | 77 | 0 | 0.0 | 3.0 | 0.00 | 0.00 | 0.00 | 68 | 1013.5 |
| 20260831080041 | 78 | 0 | 0.0 | 4.0 | 0.00 | 0.00 | 0.00 | 68 | 1013.5 |
| 20260831074555 | 78 | 242 | 0.0 | 4.0 | 0.00 | 0.00 | 0.00 | 67 | 1013.3 |
| 20260831073048 | 79 | 0 | 0.0 | 4.0 | 0.00 | 0.00 | 0.00 | 66 | 1013.3 |
| 20260831071543 | 79 | 99 | 0.0 | 7.0 | 0.00 | 0.00 | 0.00 | 65 | 1013.3 |
| 20260831070058 | 79 | 357 | 0.0 | 2.0 | 0.00 | 0.00 | 0.00 | 65 | 1013.2 |
| 20260831064551 | 79 | 0 | 0.0 | 3.0 | 0.00 | 0.00 | 0.00 | 64 | 1013.0 |
| 20260831063046 | 80 | 219 | 0.0 | 4.0 | 0.00 | 0.00 | 0.00 | 63 | 1012.7 |
| 20260831061553 | 80 | 0 | 0.0 | 1.0 | 0.00 | 0.00 | 0.00 | 64 | 1012.7 |
| 20260831060042 | 80 | 82 | 0.0 | 1.0 | 0.00 | 0.00 | 0.00 | 63 | 1012.5 |
| 20260831054601 | 81 | 217 | 0.0 | 4.0 | 0.00 | 0.00 | 0.00 | 62 | 1012.5 |
| 20260831053044 | 81 | 0 | 0.0 | 3.0 | 0.00 | 0.00 | 0.00 | 61 | 1012.5 |
| 20260831051545 | 82 | 0 | 0.0 | 4.0 | 0.00 | 0.00 | 0.00 | 60 | 1012.6 |
| 20260831050042 | 82 | 223 | 0.0 | 5.0 | 0.00 | 0.00 | 0.00 | 59 | 1012.5 |
| 20260831044607 | 83 | 0 | 1.0 | 5.0 | 0.00 | 0.00 | 0.00 | 60 | 1012.3 |
| 20260831043042 | 83 | 0 | 0.0 | 3.0 | 0.00 | 0.00 | 0.00 | 60 | 1012.4 |
| 20260831041557 | 83 | 81 | 1.0 | 3.0 | 0.00 | 0.00 | 0.00 | 60 | 1012.4 |
| 20260831040053 | 83 | 263 | 0.0 | 4.0 | 0.00 | 0.00 | 0.00 | 60 | 1012.4 |
| 20260831034544 | 83 | 0 | 0.0 | 5.0 | 0.00 | 0.00 | 0.00 | 59 | 1012.5 |
| 20260831033042 | 84 | 229 | 0.0 | 5.0 | 0.00 | 0.00 | 0.00 | 59 | 1012.5 |
| 20260831031551 | 84 | 0 | 1.0 | 3.0 | 0.00 | 0.00 | 0.00 | 59 | 1012.5 |
| 20260831030051 | 84 | 278 | 0.0 | 3.0 | 0.00 | 0.00 | 0.00 | 58 | 1012.5 |
| 20260831024544 | 85 | 0 | 0.0 | 3.0 | 0.00 | 0.00 | 0.00 | 58 | 1012.4 |
| 20260831023046 | 85 | 112 | 0.0 | 4.0 | 0.00 | 0.00 | 0.00 | 58 | 1012.3 |
| 20260831021554 | 86 | 0 | 0.0 | 3.0 | 0.00 | 0.00 | 0.00 | 57 | 1012.1 |
| 20260831020043 | 86 | 221 | 0.0 | 2.0 | 0.00 | 0.00 | 0.00 | 57 | 1012.0 |
| 20260831014541 | 87 | 0 | 0.0 | 4.0 | 0.00 | 0.00 | 0.00 | 55 | 1011.8 |
| 20260831013104 | 88 | 143 | 0.0 | 4.0 | 0.00 | 0.00 | 0.00 | 53 | 1011.6 |
| 20260831011548 | 89 | 107 | 0.0 | 3.0 | 0.00 | 0.00 | 0.00 | 52 | 1011.6 |
| 20260831010041 | 90 | 140 | 0.0 | 2.0 | 0.00 | 0.00 | 0.00 | 51 | 1011.3 |
| 20260831004543 | 91 | 186 | 1.0 | 4.0 | 0.00 | 0.00 | 0.00 | 50 | 1011.2 |
| 20260831003050 | 92 | 27 | 0.0 | 6.0 | 0.00 | 0.00 | 0.00 | 49 | 1011.2 |
| 20260831001543 | 93 | 122 | 1.0 | 4.0 | 0.00 | 0.00 | 0.00 | 47 | 1010.9 |
| 20260831000048 | 95 | 203 | 1.0 | 5.0 | 0.00 | 0.00 | 0.00 | 46 | 1010.8 |
| 20260830234547 | 96 | 283 | 1.0 | 8.0 | 0.00 | 0.00 | 0.00 | 44 | 1010.7 |
| 20260830233041 | 98 | 155 | 2.0 | 6.0 | 0.00 | 0.00 | 0.00 | 42 | 1010.8 |
| 20260830231601 | 99 | 214 | 1.0 | 6.0 | 0.00 | 0.00 | 0.00 | 42 | 1010.7 |
| 20260830230050 | 100 | 214 | 2.0 | 9.0 | 0.00 | 0.00 | 0.00 | 40 | 1010.7 |
| 20260830224552 | 100 | 43 | 1.0 | 10.0 | 0.00 | 0.00 | 0.00 | 41 | 1010.6 |
| 20260830223040 | 100 | 200 | 2.0 | 9.0 | 0.00 | 0.00 | 0.00 | 41 | 1010.6 |
| 20260830221557 | 100 | 108 | 2.0 | 9.0 | 0.00 | 0.00 | 0.00 | 40 | 1010.7 |
| 20260830220044 | 100 | 93 | 3.0 | 10.0 | 0.00 | 0.00 | 0.00 | 40 | 1010.6 |
| 20260830214556 | 100 | 138 | 3.0 | 14.0 | 0.00 | 0.00 | 0.00 | 41 | 1010.7 |
| 20260830213042 | 101 | 261 | 2.0 | 9.0 | 0.00 | 0.00 | 0.00 | 43 | 1011.0 |
| 20260830211543 | 100 | 197 | 3.0 | 11.0 | 0.00 | 0.00 | 0.00 | 41 | 1011.1 |
| 20260830210101 | 100 | 205 | 4.0 | 10.0 | 0.00 | 0.00 | 0.00 | 41 | 1011.3 |
| 20260830204551 | 100 | 225 | 3.0 | 8.0 | 0.00 | 0.00 | 0.00 | 43 | 1011.5 |
| 20260830203046 | 100 | 209 | 2.0 | 10.0 | 0.00 | 0.00 | 0.00 | 42 | 1011.7 |
| 20260830201544 | 100 | 210 | 3.0 | 8.0 | 0.00 | 0.00 | 0.00 | 43 | 1012.0 |
| 20260830200043 | 100 | 223 | 2.0 | 6.0 | 0.00 | 0.00 | 0.00 | 45 | 1012.1 |
| 20260830194552 | 99 | 188 | 2.0 | 11.0 | 0.00 | 0.00 | 0.00 | 45 | 1012.4 |
| 20260830193048 | 98 | 291 | 2.0 | 11.0 | 0.00 | 0.00 | 0.00 | 45 | 1012.5 |
| 20260830191550 | 99 | 202 | 3.0 | 9.0 | 0.00 | 0.00 | 0.00 | 46 | 1012.7 |
| 20260830190053 | 98 | 108 | 3.0 | 10.0 | 0.00 | 0.00 | 0.00 | 48 | 1012.7 |
| 20260830184548 | 97 | 146 | 5.0 | 11.0 | 0.00 | 0.00 | 0.00 | 47 | 1012.8 |
| 20260830183046 | 96 | 51 | 4.0 | 12.0 | 0.00 | 0.00 | 0.00 | 49 | 1013.1 |
| 20260830181542 | 96 | 224 | 4.0 | 12.0 | 0.00 | 0.00 | 0.00 | 49 | 1013.1 |
| 20260830180059 | 95 | 139 | 4.0 | 9.0 | 0.00 | 0.00 | 0.00 | 50 | 1013.2 |
| 20260830174545 | 94 | 11 | 2.0 | 10.0 | 0.00 | 0.00 | 0.00 | 52 | 1013.4 |
| 20260830173059 | 92 | 103 | 3.0 | 10.0 | 0.00 | 0.00 | 0.00 | 54 | 1013.5 |
| 20260830171542 | 91 | 214 | 4.0 | 11.0 | 0.00 | 0.00 | 0.00 | 54 | 1013.8 |
| 20260830170046 | 91 | 327 | 2.0 | 10.0 | 0.00 | 0.00 | 0.00 | 56 | 1013.9 |
| 20260830164557 | 90 | 217 | 3.0 | 8.0 | 0.00 | 0.00 | 0.00 | 57 | 1014.1 |
| 20260830163050 | 88 | 269 | 3.0 | 13.0 | 0.00 | 0.00 | 0.00 | 57 | 1014.0 |
| 20260830161546 | 87 | 217 | 2.0 | 8.0 | 0.00 | 0.00 | 0.00 | 60 | 1014.2 |
| 20260830160042 | 86 | 77 | 2.0 | 8.0 | 0.00 | 0.00 | 0.00 | 60 | 1014.1 |
| 20260830154552 | 85 | 263 | 4.0 | 14.0 | 0.00 | 0.00 | 0.00 | 61 | 1014.0 |
| 20260830153052 | 85 | 244 | 3.0 | 8.0 | 0.00 | 0.00 | 0.00 | 61 | 1013.9 |
| 20260830151548 | 84 | 185 | 2.0 | 9.0 | 0.00 | 0.00 | 0.00 | 62 | 1013.7 |
| 20260830150044 | 83 | 110 | 4.0 | 12.0 | 0.00 | 0.00 | 0.00 | 61 | 1013.6 |